[[{"header":{"parameterUnit":"m.s-1","parameterCategory":1,"la1":30.2991,"la2":30.254,"lo1":-89.0895,"lo2":-89.0444,"dy":0.0017,"dx":0.0017,"nx":28,"ny":28,"refTime":"2025-08-02T09:00:00:Z","depth":0,"parameterNumber":2,"parameterNumberName":"U-component_of_WINDS"},"data":[0,0,0,0,0,0,0,0,0,0,0,0,0,0,0,0,0,0,0,0,0,0,0,0,0,0,0,0,0,0,0,0,0,0,0,0,0,0,0,0,0,0,0,0,0,0,0,0,0,0,0,0,0,0,0,0,0,0,1.2737,1.2738,0,1.2811,1.2812,1.2813,1.2796,1.2795,1.2793,1.2792,1.2872,1.2875,1.2878,0,0,0,0,0,0,0,0,0,0,0,0,0,1.2587,1.259,1.2737,1.2738,1.2739,1.2811,1.2812,1.2813,1.2796,1.2795,1.2793,1.2791,1.287,1.2874,1.2879,0,0,0,0,0,0,0,0,0,0,0,0,0,1.2656,1.2591,1.2737,1.2739,1.274,1.2811,1.2812,1.2813,1.2797,1.2795,1.2793,1.2791,1.2869,1.2874,1.2879,1.2953,0,0,1.2895,1.2897,0,0,0,0,0,0,0,0,1.2652,1.2661,1.2738,1.2739,1.274,1.2792,1.2788,1.286,1.2797,1.2775,1.2792,1.279,1.2847,1.2854,1.2873,1.2957,1.296,1.2895,1.2898,1.2901,1.2902,0,0,0,0,0,0,0,1.2647,1.2658,1.2766,1.2739,1.274,1.2738,1.2746,1.2802,1.2822,1.2777,1.2776,1.2785,1.2847,1.2868,1.2874,1.2961,1.2895,1.29,1.2903,1.2905,1.3115,1.3118,0,0,0,0,0,0,1.2641,1.2654,1.2764,1.2768,1.269,1.2743,1.2751,1.2778,1.2822,1.2826,1.2787,1.2784,1.286,1.2868,1.2877,1.297,1.2901,1.2905,1.2908,1.3113,1.3116,1.3118,0,0,0,0,0,0,1.2637,1.265,1.2761,1.2711,1.2725,1.2748,1.2778,1.278,1.28,1.2829,1.2833,1.2803,1.2859,1.287,1.2935,1.2972,1.2908,1.2912,1.311,1.3114,1.3117,1.3153,0,0,0,0,0,0,1.2633,1.2649,1.2676,1.2712,1.2728,1.2816,1.278,1.2783,1.2809,1.2806,1.2845,1.285,1.2858,1.2928,1.294,1.2978,1.2916,1.3107,1.3112,1.3116,1.3149,1.3158,1.3165,0,0,0,0,0,1.2628,1.2683,1.2677,1.2691,1.2761,1.2818,1.2827,1.2834,1.2812,1.284,1.2859,1.2849,1.2966,1.2934,1.2948,1.2988,1.3104,1.311,1.3116,1.3145,1.3156,1.3165,0,0,0,0,0,0,1.2651,1.2688,1.2682,1.275,1.2781,1.2815,1.285,1.2845,1.2884,1.2879,1.2888,1.2897,1.2964,1.2983,1.2947,1.3065,1.3032,1.3041,1.305,1.3061,1.3069,1.3063,1.2921,0,0,0,0,0,1.2664,1.2706,1.2736,1.2793,1.2809,1.2827,1.2852,1.2855,1.2888,1.2902,1.2925,1.2959,1.3004,1.3033,1.3075,1.3152,1.3162,1.3186,1.3195,1.3201,1.3209,1.3255,1.3267,1.3137,1.3137,1.3137,0,0,1.2692,1.2717,1.2742,1.2799,1.2823,1.2868,1.2838,1.2886,1.2921,1.2909,1.2973,1.2992,1.303,1.3102,1.3135,1.312,1.3248,1.3208,1.3213,1.3218,1.3262,1.3275,1.3286,1.3141,1.314,1.3139,0,0,1.2765,1.2787,1.2839,1.2864,1.2902,1.2914,1.2927,1.2963,1.2975,1.3039,1.3032,1.3074,1.315,1.3179,1.3204,1.3293,1.3286,1.3306,1.335,1.3395,1.3405,1.3414,1.3449,1.3461,1.3314,1.3314,1.3314,0,1.2795,1.2861,1.2866,1.2916,1.2943,1.2934,1.2989,1.3014,1.3064,1.3084,1.3065,1.3163,1.3188,1.3269,1.3291,1.331,1.3328,1.3302,1.3403,1.3412,1.3421,1.3454,1.3467,1.3316,1.3316,1.3316,1.3316,0,1.2897,1.2944,1.2982,1.303,1.3061,1.3113,1.3129,1.316,1.3161,1.3176,1.3244,1.3274,1.3325,1.3344,1.3345,1.3426,1.3416,1.34,1.3368,1.3436,1.3468,1.348,1.332,1.3319,1.3318,1.3318,0,0,1.2986,1.3039,1.3053,1.3077,1.312,1.3157,1.321,1.3259,1.3287,1.3323,1.337,1.3436,1.3423,1.3451,1.3456,1.3495,1.3568,1.3475,1.3476,1.3494,1.3664,1.3677,1.3692,1.3564,1.3566,1.3568,1.3662,0,1.3066,1.3158,1.3166,1.325,1.3296,1.329,1.3337,1.337,1.3386,1.3429,1.3448,1.3496,1.3473,1.3491,1.3529,1.3551,1.3603,1.3544,1.3611,1.3613,1.3603,1.3708,1.3721,1.3808,1.3674,1.3676,1.3678,0,1.317,1.3209,1.3298,1.3338,1.3357,1.3399,1.3447,1.3486,1.3525,1.3535,1.3568,1.3569,1.3627,1.3592,1.3675,1.3635,1.3663,1.3679,1.3682,1.369,1.365,1.3721,1.3835,1.385,1.3697,1.3695,1.3694,0,1.323,1.3305,1.3368,1.3389,1.3436,1.3466,1.3487,1.3524,1.3554,1.3596,1.3617,1.3665,1.3693,1.3732,1.3747,1.372,1.3831,1.3796,1.3843,1.3843,1.3868,1.3866,1.3991,1.3882,1.3882,1.3882,1.3881,0,1.3318,1.3374,1.3396,1.3436,1.3499,1.3509,1.3572,1.3592,1.3626,1.3671,1.3669,1.3712,1.3729,1.3776,1.3789,1.3858,1.3869,1.3881,1.3884,1.3882,1.3881,1.3902,1.3897,1.3885,1.3884,1.3884,1.3883,0,1.3396,1.3413,1.3482,1.3522,1.3534,1.3579,1.3614,1.3654,1.367,1.3728,1.3743,1.377,1.3826,1.3845,1.3912,1.3921,1.4002,1.3999,1.3989,1.399,1.4037,1.4034,1.4181,1.4202,1.4077,1.4079,1.4079,0,1.3452,1.3495,1.3539,1.3569,1.3592,1.364,1.3671,1.3684,1.3718,1.3767,1.3802,1.3857,1.3902,1.3992,1.4019,1.4072,1.4071,1.412,1.4079,1.4078,1.4076,1.4074,1.408,1.4127,1.4129,1.413,1.4131,0,1.3551,1.3559,1.3603,1.3652,1.3689,1.3728,1.3766,1.3791,1.381,1.3848,1.3905,1.394,1.401,1.4066,1.4121,1.4145,1.4143,1.4143,1.4157,1.4157,1.4151,1.4158,1.4012,1.414,1.4139,1.4138,1.4138,1.4137,1.3622,1.3661,1.37,1.375,1.378,1.3817,1.3857,1.388,1.3927,1.3984,1.399,1.4052,1.4094,1.4167,1.4195,1.4246,1.4232,1.4252,1.4258,1.4263,1.4268,1.4141,1.4255,1.4255,1.4255,1.4255,1.4254,0,1.3724,1.3749,1.3795,1.3849,1.389,1.3883,1.3926,1.3961,1.4015,1.4054,1.4099,1.4166,1.4222,1.4254,1.4311,1.4346,1.4347,1.4361,1.4359,1.4366,1.4275,1.4258,1.4359,1.4359,1.4359,1.4359,1.4359,1.4359,1.3782,1.3849,1.3861,1.3945,1.397,1.403,1.4056,1.4091,1.4122,1.4197,1.4243,1.4264,1.4301,1.4361,1.4413,1.4422,1.4444,1.446,1.4468,1.4382,1.4372,1.4361,1.4346,1.4464,1.4464,1.4555,1.4556,1.4556]},{"header":{"parameterUnit":"m.s-1","parameterCategory":1,"la1":30.2991,"la2":30.254,"lo1":-89.0895,"lo2":-89.0444,"dy":0.0017,"dx":0.0017,"nx":28,"ny":28,"refTime":"2025-08-02T09:00:00:Z","depth":0,"parameterNumber":3,"parameterNumberName":"V-component_of_WINDS"},"data":[0,0,0,0,0,0,0,0,0,0,0,0,0,0,0,0,0,0,0,0,0,0,0,0,0,0,0,0,0,0,0,0,0,0,0,0,0,0,0,0,0,0,0,0,0,0,0,0,0,0,0,0,0,0,0,0,0,0,-2.4482,-2.4482,0,-2.444,-2.444,-2.4439,-2.4418,-2.4418,-2.4418,-2.4418,-2.4371,-2.437,-2.4369,0,0,0,0,0,0,0,0,0,0,0,0,0,-2.4539,-2.4538,-2.4482,-2.4482,-2.4481,-2.444,-2.444,-2.4439,-2.4418,-2.4418,-2.4418,-2.4418,-2.4372,-2.437,-2.4369,0,0,0,0,0,0,0,0,0,0,0,0,0,-2.4508,-2.4538,-2.4482,-2.4466,-2.4464,-2.444,-2.444,-2.4439,-2.4418,-2.4418,-2.4418,-2.4418,-2.4372,-2.4371,-2.4369,-2.4358,0,0,-2.4363,-2.4362,0,0,0,0,0,0,0,0,-2.4509,-2.4505,-2.4468,-2.4467,-2.4464,-2.4434,-2.4443,-2.4412,-2.4418,-2.4435,-2.4418,-2.4418,-2.4392,-2.4389,-2.4381,-2.4356,-2.4354,-2.4363,-2.4362,-2.4361,-2.4361,0,0,0,0,0,0,0,-2.4512,-2.4507,-2.4465,-2.4468,-2.4465,-2.4459,-2.4454,-2.4437,-2.4414,-2.4433,-2.4432,-2.4427,-2.4391,-2.4383,-2.438,-2.4353,-2.4363,-2.4361,-2.436,-2.436,-2.4314,-2.4314,0,0,0,0,0,0,-2.4517,-2.4509,-2.4467,-2.4464,-2.4487,-2.4458,-2.4453,-2.4444,-2.4414,-2.441,-2.4427,-2.4426,-2.4386,-2.4382,-2.4378,-2.4362,-2.4361,-2.4359,-2.4358,-2.4314,-2.4314,-2.4314,0,0,0,0,0,0,-2.4518,-2.4514,-2.4468,-2.4486,-2.448,-2.4457,-2.4447,-2.4443,-2.4435,-2.441,-2.4405,-2.4423,-2.4386,-2.438,-2.4363,-2.436,-2.4359,-2.4357,-2.4315,-2.4314,-2.4314,-2.433,0,0,0,0,0,0,-2.452,-2.4514,-2.4511,-2.4486,-2.4479,-2.4455,-2.4447,-2.4442,-2.4432,-2.443,-2.4405,-2.44,-2.4385,-2.4366,-2.4361,-2.4357,-2.4356,-2.4315,-2.4314,-2.4314,-2.433,-2.4331,-2.4331,0,0,0,0,0,-2.4522,-2.4517,-2.4511,-2.4506,-2.4475,-2.4455,-2.4451,-2.4435,-2.4432,-2.4427,-2.4411,-2.4401,-2.4361,-2.4364,-2.4358,-2.4354,-2.4315,-2.4315,-2.4314,-2.4329,-2.433,-2.4331,0,0,0,0,0,0,-2.4541,-2.4513,-2.4506,-2.4493,-2.4477,-2.4452,-2.4446,-2.4437,-2.442,-2.4419,-2.4398,-2.4393,-2.4376,-2.4363,-2.4367,-2.4341,-2.4337,-2.4335,-2.435,-2.4351,-2.4351,-2.4354,-2.4354,0,0,0,0,0,-2.4544,-2.4532,-2.4508,-2.4498,-2.449,-2.447,-2.4461,-2.4449,-2.4431,-2.4424,-2.4406,-2.4388,-2.4371,-2.436,-2.4343,-2.4328,-2.4321,-2.4322,-2.4323,-2.4323,-2.4322,-2.4311,-2.431,-2.4313,-2.4313,-2.4313,0,0,-2.4549,-2.4532,-2.4526,-2.4501,-2.4487,-2.4474,-2.4464,-2.445,-2.4439,-2.4421,-2.4404,-2.439,-2.4368,-2.4351,-2.4342,-2.4339,-2.432,-2.4323,-2.4324,-2.4322,-2.431,-2.431,-2.431,-2.4313,-2.4313,-2.4313,0,0,-2.4552,-2.4539,-2.4528,-2.4514,-2.4494,-2.448,-2.4477,-2.4453,-2.4443,-2.4425,-2.4411,-2.4397,-2.4369,-2.4353,-2.4341,-2.4336,-2.4325,-2.4331,-2.4334,-2.4323,-2.4323,-2.4323,-2.4319,-2.4318,-2.433,-2.433,-2.433,0,-2.456,-2.4541,-2.4524,-2.4511,-2.45,-2.4483,-2.4472,-2.4459,-2.4433,-2.4425,-2.4422,-2.4385,-2.4369,-2.4347,-2.4346,-2.4337,-2.4332,-2.4334,-2.4325,-2.4324,-2.4324,-2.432,-2.4319,-2.4331,-2.433,-2.433,-2.433,0,-2.4552,-2.4538,-2.4532,-2.4508,-2.4496,-2.4484,-2.4464,-2.4453,-2.4443,-2.4428,-2.4409,-2.4389,-2.4367,-2.4361,-2.435,-2.4337,-2.4335,-2.4329,-2.4324,-2.4324,-2.432,-2.4319,-2.4332,-2.4331,-2.4331,-2.4331,0,0,-2.4566,-2.4532,-2.453,-2.4518,-2.4493,-2.4481,-2.4467,-2.4446,-2.4437,-2.4419,-2.4406,-2.4381,-2.4375,-2.4361,-2.4349,-2.4339,-2.4334,-2.4334,-2.4333,-2.4333,-2.4315,-2.432,-2.4318,-2.4327,-2.4326,-2.4326,-2.4317,0,-2.4564,-2.4539,-2.4523,-2.4504,-2.449,-2.4473,-2.4461,-2.4443,-2.4429,-2.4413,-2.4397,-2.438,-2.4373,-2.4365,-2.4355,-2.4337,-2.433,-2.4337,-2.4312,-2.4311,-2.4318,-2.4317,-2.4322,-2.4314,-2.4315,-2.4315,-2.4315,0,-2.4559,-2.4542,-2.4522,-2.4497,-2.449,-2.4479,-2.4458,-2.4444,-2.4422,-2.4412,-2.4397,-2.4384,-2.4366,-2.4363,-2.4337,-2.4342,-2.4331,-2.432,-2.4319,-2.4316,-2.4313,-2.4312,-2.4311,-2.4309,-2.4313,-2.4313,-2.4313,0,-2.4569,-2.4541,-2.4525,-2.4516,-2.4487,-2.4479,-2.4466,-2.4445,-2.4433,-2.4413,-2.4405,-2.4383,-2.4371,-2.4354,-2.4334,-2.4334,-2.431,-2.4305,-2.4299,-2.43,-2.4295,-2.4295,-2.4291,-2.4289,-2.4289,-2.4289,-2.4289,0,-2.4568,-2.4556,-2.4529,-2.452,-2.4505,-2.4486,-2.4471,-2.4456,-2.4437,-2.4423,-2.4407,-2.4393,-2.4368,-2.4351,-2.4335,-2.4315,-2.431,-2.43,-2.4296,-2.4301,-2.4302,-2.4293,-2.4292,-2.4288,-2.4289,-2.4289,-2.4289,0,-2.4578,-2.4559,-2.4541,-2.4514,-2.4507,-2.4497,-2.4474,-2.4462,-2.4447,-2.4429,-2.4423,-2.4398,-2.4377,-2.4355,-2.4326,-2.4316,-2.4295,-2.429,-2.4303,-2.43,-2.4295,-2.4295,-2.4284,-2.428,-2.4282,-2.4282,-2.4282,0,-2.4578,-2.4568,-2.4541,-2.4531,-2.4518,-2.4502,-2.4489,-2.4469,-2.4456,-2.443,-2.4421,-2.4399,-2.438,-2.4346,-2.4324,-2.4301,-2.4295,-2.4292,-2.4291,-2.4296,-2.4293,-2.4293,-2.4291,-2.4293,-2.4293,-2.4293,-2.4293,0,-2.458,-2.4571,-2.4555,-2.4534,-2.452,-2.4503,-2.4485,-2.4477,-2.4452,-2.4438,-2.4417,-2.4402,-2.4372,-2.4349,-2.4324,-2.4308,-2.4296,-2.4293,-2.429,-2.4295,-2.4303,-2.4297,-2.4303,-2.4294,-2.4294,-2.4293,-2.4293,-2.4293,-2.4584,-2.4574,-2.4553,-2.4534,-2.4519,-2.4502,-2.4489,-2.4472,-2.4454,-2.4429,-2.4418,-2.4395,-2.4372,-2.4336,-2.432,-2.4301,-2.4298,-2.4294,-2.4293,-2.4292,-2.4293,-2.4306,-2.4297,-2.4296,-2.4296,-2.4296,-2.4296,0,-2.4584,-2.457,-2.4553,-2.4528,-2.4513,-2.4504,-2.4483,-2.447,-2.4451,-2.4431,-2.4412,-2.4386,-2.4363,-2.4339,-2.4314,-2.4303,-2.4297,-2.4297,-2.4297,-2.4294,-2.4298,-2.4302,-2.4303,-2.4303,-2.4303,-2.4303,-2.4303,-2.4303,-2.4583,-2.4565,-2.4553,-2.4526,-2.4511,-2.449,-2.4479,-2.4462,-2.4446,-2.4418,-2.4399,-2.4384,-2.4361,-2.4334,-2.4312,-2.4305,-2.4296,-2.4298,-2.429,-2.4294,-2.4294,-2.4293,-2.4297,-2.4297,-2.4297,-2.4287,-2.4287,-2.4287]}]]